Date String (YYYY-MM-DD hh:mm:ss) UTC,Instrument flags,Ambient pressure (hPa),Sample flow (lpm),Bypass flow (lpm),Sample temperature (°C),Ambient temperature (°C),ASC tube jacket temperature (°C),LED temperature (°C),Box temperature (°C),Sample RH (%),Span deviation,Mass concentration (μg/m³),Mass concentration (μg/m³),Mass concentration (μg/m³)
DateTimeUTC,F1_M11,P_M11,Q1_M11,Q2_M11,T1_M11,T2_M11,T3_M11,T4_M11,T5_M11,U1_M11,ZSPAN_M11,X0_M11,X2_M11,X1_M11
2021-11-04 22:00:00,,0825.6,5.00,0.00,30.1,27.3,00.0,39.2,31.6,10.8,0000.0,0009.86,0004.27,0003.62
2021-11-04 22:01:00,,0825.6,4.99,0.00,30.1,27.7,00.0,39.2,31.7,10.9,0000.0,0009.98,0004.28,0003.62
2021-11-04 22:02:00,,0825.6,5.00,0.00,30.1,28.1,00.0,39.1,31.7,10.9,0000.0,0010.08,0004.30,0003.61
2021-11-04 22:03:00,,0825.6,4.99,0.00,30.1,28.4,00.0,39.1,31.7,10.8,0000.0,0009.97,0004.26,0003.58
2021-11-04 22:04:00,,0825.6,5.00,0.00,30.1,28.6,00.0,39.1,31.8,10.5,0000.0,0009.91,0004.24,0003.55
2021-11-04 22:05:00,,0825.6,5.01,0.00,30.1,28.7,00.0,39.1,31.9,10.6,0000.0,0009.89,0004.22,0003.51
2021-11-04 22:06:00,,0825.6,5.00,0.00,30.1,28.9,00.0,39.1,31.9,10.7,0000.0,0009.83,0004.16,0003.47
2021-11-04 22:07:00,,0825.6,4.99,0.00,30.2,29.0,00.0,39.1,32.0,10.5,0000.0,0009.86,0004.14,0003.42
2021-11-04 22:08:00,,0825.6,5.01,0.00,30.2,29.1,00.0,39.1,32.0,10.6,0000.0,0010.50,0004.11,0003.37
2021-11-04 22:09:00,,0825.6,5.00,0.00,30.2,29.2,00.0,39.1,32.0,10.5,0000.0,0009.87,0004.02,0003.32
2021-11-04 22:10:00,,0825.6,5.00,0.00,30.3,29.3,00.0,39.2,32.1,10.5,0000.0,0010.98,0003.96,0003.26
2021-11-04 22:11:00,,0825.6,5.01,0.00,30.3,29.4,00.0,39.2,32.1,10.5,0000.0,0011.97,0003.90,0003.22
2021-11-04 22:12:00,,0825.7,5.00,0.00,30.3,29.4,00.0,39.2,32.2,10.4,0000.0,0012.14,0003.88,0003.19
2021-11-04 22:13:00,,0825.6,4.99,0.00,30.4,29.5,00.0,39.2,32.2,10.4,0000.0,0012.26,0003.89,0003.16
2021-11-04 22:14:00,,0825.6,5.00,0.00,30.4,29.6,00.0,39.2,32.2,10.4,0000.0,0012.32,0003.88,0003.15
2021-11-04 22:15:00,,0825.6,5.00,0.00,30.4,29.6,00.0,39.3,32.3,10.3,0000.0,0012.40,0003.84,0003.13
2021-11-04 22:16:00,,0825.6,4.99,0.00,30.5,29.7,00.0,39.3,32.3,10.4,0000.0,0012.83,0003.80,0003.09
2021-11-04 22:17:00,,0825.6,5.00,0.00,30.5,29.7,00.0,39.3,32.4,10.3,0000.0,0012.92,0003.80,0003.06
2021-11-04 22:18:00,,0825.6,5.00,0.00,30.5,29.7,00.0,39.3,32.4,10.3,0000.0,0012.77,0003.81,0003.04
2021-11-04 22:19:00,,0825.6,5.00,0.00,30.6,29.6,00.0,39.4,32.4,10.2,0000.0,0012.14,0003.74,0003.02
2021-11-04 22:20:00,,0825.6,5.00,0.00,30.5,27.6,00.0,39.4,32.0,10.3,0000.0,0012.72,0003.74,0003.01
2021-11-04 22:21:00,,0825.5,5.00,0.00,30.3,26.0,00.0,39.3,31.6,10.3,0000.0,0012.80,0003.75,0002.99
2021-11-04 22:22:00,,0825.5,5.00,0.00,30.2,26.1,00.0,39.3,31.6,10.4,0000.0,0012.03,0003.73,0002.95
2021-11-04 22:23:00,,0825.5,5.01,0.00,30.1,26.6,00.0,39.2,31.6,10.4,0000.0,0012.11,0003.76,0002.92
2021-11-04 22:24:00,,0825.5,5.01,0.00,30.1,27.0,00.0,39.2,31.6,10.6,0000.0,0012.00,0003.75,0002.93
2021-11-04 22:25:00,,0825.5,5.00,0.00,30.0,27.5,00.0,39.1,31.6,10.7,0000.0,0012.03,0003.73,0002.90
2021-11-04 22:26:00,,0825.6,5.00,0.00,30.0,27.9,00.0,39.1,31.7,10.8,0000.0,0011.98,0003.72,0002.88
2021-11-04 22:27:00,,0825.5,5.00,0.00,30.0,28.2,00.0,39.1,31.7,10.6,0000.0,0012.02,0003.71,0002.88
2021-11-04 22:28:00,,0825.5,5.01,0.00,30.1,28.5,00.0,39.1,31.8,10.6,0000.0,0012.63,0003.73,0002.90
2021-11-04 22:29:00,,0825.5,5.00,0.00,30.1,28.7,00.0,39.1,31.9,10.6,0000.0,0013.16,0003.73,0002.91
2021-11-04 22:30:00,,0825.5,4.99,0.00,30.1,28.8,00.0,39.1,31.9,10.6,0000.0,0014.31,0003.76,0002.91
2021-11-04 22:31:00,,0825.5,5.00,0.00,30.1,29.0,00.0,39.1,32.0,10.7,0000.0,0015.20,0003.79,0002.91
2021-11-04 22:32:00,,0825.5,5.01,0.00,30.2,29.1,00.0,39.1,32.0,10.5,0000.0,0014.84,0003.79,0002.92
2021-11-04 22:33:00,,0825.5,5.02,0.00,30.2,29.2,00.0,39.1,32.0,10.6,0000.0,0015.45,0003.81,0002.95
2021-11-04 22:34:00,,0825.5,5.00,0.00,30.2,29.3,00.0,39.1,32.1,10.6,0000.0,0015.18,0003.82,0003.01
2021-11-04 22:35:00,,0825.5,5.00,0.00,30.3,29.3,00.0,39.2,32.1,10.6,0000.0,0015.53,0003.80,0003.05
2021-11-04 22:36:00,,0825.5,5.01,0.00,30.3,29.4,00.0,39.2,32.1,10.7,0000.0,0015.76,0003.88,0003.12
2021-11-04 22:37:00,,0825.5,4.99,0.00,30.4,29.5,00.0,39.2,32.2,10.6,0000.0,0015.84,0003.92,0003.17
2021-11-04 22:38:00,,0825.5,5.00,0.00,30.4,29.5,00.0,39.2,32.2,10.5,0000.0,0016.13,0003.99,0003.21
2021-11-04 22:39:00,,0825.5,5.00,0.00,30.4,29.6,00.0,39.2,32.3,10.6,0000.0,0016.12,0004.01,0003.24
2021-11-04 22:40:00,,0825.5,5.00,0.00,30.5,29.6,00.0,39.3,32.3,10.4,0000.0,0016.33,0004.02,0003.25
2021-11-04 22:41:00,,0825.5,5.00,0.00,30.5,29.7,00.0,39.3,32.4,10.4,0000.0,0015.29,0004.04,0003.28
2021-11-04 22:42:00,,0825.5,5.01,0.00,30.5,29.7,00.0,39.3,32.4,10.4,0000.0,0014.54,0004.05,0003.32
2021-11-04 22:43:00,,0825.5,4.99,0.00,30.6,29.5,00.0,39.4,32.4,10.4,0000.0,0013.95,0004.04,0003.34
2021-11-04 22:44:00,,0825.4,5.00,0.00,30.5,27.6,00.0,39.3,31.9,10.5,0000.0,0013.00,0004.01,0003.35
2021-11-04 22:45:00,,0825.5,4.99,0.00,30.3,25.9,00.0,39.3,31.6,10.5,0000.0,0012.35,0004.01,0003.35
2021-11-04 22:46:00,,0825.4,5.00,0.00,30.2,26.0,00.0,39.3,31.5,10.5,0000.0,0011.84,0004.01,0003.34
2021-11-04 22:47:00,,0825.5,5.02,0.00,30.1,26.5,00.0,39.2,31.5,10.6,0000.0,0011.64,0003.98,0003.30
2021-11-04 22:48:00,,0825.5,5.01,0.00,30.0,27.0,00.0,39.1,31.6,10.6,0000.0,0011.74,0004.00,0003.29
2021-11-04 22:49:00,,0825.5,4.99,0.00,30.0,27.5,00.0,39.1,31.7,10.6,0000.0,0011.77,0003.99,0003.26
2021-11-04 22:50:00,,0825.5,5.00,0.00,30.0,27.9,00.0,39.1,31.7,10.7,0000.0,0011.39,0004.01,0003.23
2021-11-04 22:51:00,,0825.4,5.00,0.00,30.0,28.2,00.0,39.1,31.8,10.8,0000.0,0011.21,0004.01,0003.23
2021-11-04 22:52:00,,0825.5,5.00,0.00,30.0,28.5,00.0,39.1,31.8,10.7,0000.0,0010.91,0003.98,0003.21
2021-11-04 22:53:00,,0825.4,5.00,0.00,30.1,28.7,00.0,39.1,31.9,10.7,0000.0,0010.43,0004.01,0003.19
2021-11-04 22:54:00,,0825.5,4.99,0.00,30.1,28.8,00.0,39.1,31.9,10.7,0000.0,0010.75,0004.07,0003.18
2021-11-04 22:55:00,,0825.4,5.00,0.00,30.1,29.0,00.0,39.1,32.0,10.6,0000.0,0010.65,0004.11,0003.17
2021-11-04 22:56:00,,0825.5,5.00,0.00,30.2,29.1,00.0,39.1,32.0,10.7,0000.0,0011.95,0004.18,0003.19
2021-11-04 22:57:00,,0825.5,5.01,0.00,30.2,29.2,00.0,39.1,32.0,10.7,0000.0,0013.51,0004.21,0003.19
2021-11-04 22:58:00,,0825.4,4.99,0.00,30.2,29.3,00.0,39.1,32.1,10.5,0000.0,0015.52,0004.27,0003.20
2021-11-04 22:59:00,,0825.4,5.00,0.00,30.3,29.4,00.0,39.1,32.1,10.5,0000.0,0015.92,0004.23,0003.20
